Flag for Germany Weather past 2 weeks in Homburg (Saar), Saarland, Germany

Now
63 °F

Light rain. Fog.


Feels Like: 63 °F
Forecast: 54 / 77 °F
Wind: 6 mph from Northwest

Location: Zweibrucken - Rheinland-Pfalz

Current Time: Jul 30, 2014 at 3:59:32 AM

Latest Report: Jul 30, 2014 at 2:50 AM


Visibility: 3 mi

Pressure: 29.80 "Hg

Humidity: 100%

Dew point: 63 °F

Location of Homburg (Saar)Location

Historic Weather in Homburg (Saar) — Graph

°F

Homburg (Saar) temperature yesterday

Maximum temperature yesterday: 73 °F (at 3:50 PM)
Minimum temperature yesterday: 61 °F (at 12:50 AM)
Average temperature yesterday: 65 °F

Past Weeks' High & Low Weather Summary

 TemperatureHumidityPressure
High90 °F (Jul 19, 3:20 PM)100% (Jul 21, 7:50 AM)30.21 "Hg (Jul 21, 7:50 AM)
Low57 °F (Jul 15, 4:20 AM)35% (Jul 18, 6:50 PM)29.80 "Hg (Jul 29, 7:50 AM)
Average71 °F70%29.99 "Hg
* Reported Jul 15 4:20 AM — Jul 30 2:50 AM, Homburg (Saar), Weather by CustomWeather, © 2014

Note: Actual official high and low records may vary slightly from our data, if they occured in-between our weather recording intervals... More about our weather records

Advertising

Homburg (Saar) weather history for previous 24 hours

 ConditionsComfort  
Time TempWeatherWind HumidityBarometerVisibility
2:50 AM
Jul 30
63 °FLight rain. Fog.6 mph100%29.80 "Hg3 mi
2:20 AM63 °FLight rain. Fog.6 mph100%29.80 "Hg1 mi
1:50 AM63 °FLight rain. Passing clouds.7 mph100%29.80 "Hg4 mi
1:20 AM63 °FRain. Fog.7 mph100%29.80 "Hg2 mi
12:50 AM63 °FLight rain. Fog.7 mph100%29.83 "Hg1 mi
10:20 PM
Jul 29
64 °FThundershowers. Broken clouds.1 mph94%29.80 "Hg5 mi
9:50 PM64 °FPartly sunny.5 mph94%29.80 "HgN/A
9:20 PM64 °FPartly sunny.6 mph94%29.80 "HgN/A
8:50 PM64 °FBroken clouds.5 mph100%29.80 "HgN/A
8:20 PM64 °FBroken clouds.2 mph100%29.80 "HgN/A
7:50 PM64 °FScattered clouds.5 mph100%29.80 "HgN/A
7:20 PM64 °FLight rain. Partly sunny.6 mph100%29.80 "HgN/A
6:50 PM64 °FSprinkles. Scattered clouds.5 mph100%29.80 "Hg4 mi
6:20 PM64 °FHeavy rain. Broken clouds.3 mph94%29.80 "Hg6 mi
5:50 PM66 °FThundershowers. Broken clouds.8 mph94%29.80 "Hg6 mi
5:20 PM66 °FThundershowers. Broken clouds.7 mph94%29.80 "Hg3 mi
4:50 PM66 °FThunderstorms. Partly sunny.7 mph88%29.80 "HgN/A
4:20 PM73 °FThundershowers. Broken clouds.5 mph83%29.80 "HgN/A
3:50 PM73 °FBroken clouds.3 mph78%29.80 "HgN/A
3:20 PM72 °FScattered clouds.2 mph78%29.80 "HgN/A
2:50 PM70 °FMostly cloudy.2 mph88%29.80 "HgN/A
2:20 PM68 °FMostly cloudy.3 mph88%29.80 "HgN/A
1:50 PM66 °FPartly sunny.2 mph94%29.83 "Hg5 mi
1:20 PM66 °FMore clouds than sun.1 mph100%29.83 "Hg4 mi
12:50 PM64 °FDrizzle. Fog.3 mph94%29.83 "Hg1 mi
12:20 PM63 °FFog.2 mph100%29.83 "Hg1 mi
11:50 AM63 °FFog.2 mph100%29.83 "Hg1 mi
11:20 AM63 °FFog.3 mph100%29.83 "Hg1 mi
10:50 AM63 °FLight rain. Fog.3 mph100%29.83 "Hg1 mi
10:20 AM63 °FFog.3 mph94%29.83 "Hg0 mi
9:50 AM63 °FFog.2 mph94%29.83 "Hg0 mi
9:20 AM63 °FFog.2 mph94%29.83 "Hg0 mi
8:50 AM61 °FFog.5 mph100%29.80 "Hg0 mi
8:20 AM61 °FFog.3 mph100%29.80 "Hg1 mi
7:50 AM61 °FFog.3 mph100%29.80 "Hg1 mi
5:20 AM61 °FLight rain. Fog.6 mph100%29.83 "Hg2 mi
4:50 AM61 °FLight rain. Fog.6 mph100%29.83 "Hg2 mi
Weather by CustomWeather, © 2014

See weather overviewHow to use our weather pages